Waarnemingen

Advertentie
Mijn weer
Bastia, Frankrijk (7790): temperatuur & dauwpunt: 15.08.2018 06:00:00 - 21.08.2018 06:00:00 (CEST)Bastia, Frankrijk (7790): temperatuur 5cm: 15.08.2018 06:00:00 - 21.08.2018 06:00:00 (CEST)Bastia, Frankrijk (7790): temperatuur -20cm & temperatuur -100cm: 15.08.2018 06:00:00 - 21.08.2018 06:00:00 (CEST)Bastia, Frankrijk (7790): windsnelheid & windstoten: 15.08.2018 06:00:00 - 21.08.2018 06:00:00 (CEST)Bastia, Frankrijk (7790): windrichting: 15.08.2018 06:00:00 - 21.08.2018 06:00:00 (CEST)Bastia, Frankrijk (7790): luchtdruk: 15.08.2018 06:00:00 - 21.08.2018 06:00:00 (CEST)Bastia, Frankrijk (7790): zicht: 15.08.2018 06:00:00 - 21.08.2018 06:00:00 (CEST)Bastia, Frankrijk (7790): Zonneschijnduur: 15.08.2018 06:00:00 - 21.08.2018 06:00:00 (CEST)Bastia, Frankrijk (7790): neerslag: 15.08.2018 06:00:00 - 21.08.2018 06:00:00 (CEST)
Datum & Tijd tt [°C] td [°C] tt 5cm [°C] tt -20cm [°C] tt -100cm [°C] ff [km/u] ff [kn] fx [km/u] fx [kn] dd ppp [hPa] vv [km] sd [min] rr [mm]
21.08.2018 06:00:00 23,0 16,3 20,6 28,2 25,4 8 5 14 8 ZW 1013,8 17 0 0,0
21.08.2018 05:00:00 23,1 16,4 20,6 28,3 25,4 6 3 13 7 ZZW 1013,8 29 0 0,0
21.08.2018 04:00:00 23,8 16,3 20,7 28,4 25,4 6 3 16 9 WZW 1013,9 33 0 0,0
21.08.2018 03:00:00 25,5 16,4 23,4 28,4 25,4 11 6 21 12 ZW 1013,8 33 0 0,0
21.08.2018 02:00:00 25,8 16,6 21,5 28,4 25,4 11 6 20 11 ZW 1014,1 34 0 0,0
21.08.2018 01:00:00 23,2 17,4 21,1 28,5 25,4 9 5 14 7 ZW 1014,3 29 0 0,0
21.08.2018 00:00:00 23,6 18,0 21,9 28,4 25,4 4 2 10 5 WZW 1014,5 27 0 0,0
20.08.2018 23:00:00 23,6 18,0 22,3 28,4 25,4 9 5 13 7 Z 1014,8 26 0 0,0
20.08.2018 22:00:00 24,9 18,6 23,5 28,3 25,4 8 5 10 5 ZZW 1014,8 25 0 0,0
20.08.2018 21:00:00 26,4 19,5 25,1 28,2 25,4 6 3 7 4 Z 1014,3 30 0 0,0
20.08.2018 20:00:00 28,6 19,8 27,2 28,0 25,4 5 3 32 17 N 1013,9 30 17 0,0
20.08.2018 19:00:00 30,3 18,4 32,7 27,9 25,4 9 5 24 13 N 1012,8 34 60 0,0
20.08.2018 18:00:00 31,2 17,9 35,4 27,6 25,4 17 9 23 13 NNO 1013,4 48 60 0,0
20.08.2018 17:00:00 31,7 18,7 38,3 27,5 25,4 13 7 30 16 NNO 1013,4 49 60 0,0
20.08.2018 16:00:00 31,9 18,8 39,1 27,4 25,4 14 7 35 19 N 1013,2 20 60 0,0
20.08.2018 15:00:00 30,9 20,8 38,7 27,4 25,4 12 6 27 15 N 1014,2 20 60 0,0
20.08.2018 14:00:00 31,1 19,4 38,5 27,3 25,4 13 7 30 16 NNO 1014,6 29 60 0,0
20.08.2018 13:00:00 30,7 19,7 37,5 27,4 25,4 13 7 25 13 N 1015,0 24 60 0,0
20.08.2018 12:00:00 29,8 20,1 35,6 27,4 25,4 14 7 24 13 N 1014,9 22 60 0,0
20.08.2018 11:00:00 29,3 21,3 33,0 27,6 25,4 15 8 28 15 N 1015,0 20 60 0,0
20.08.2018 10:00:00 28,7 21,7 31,1 27,7 25,4 18 10 28 15 N 1015,0 19 60 0,0
20.08.2018 09:00:00 26,4 19,5 25,7 27,8 25,4 6 4 11 6 Z 1014,9 23 60 0,0
20.08.2018 08:00:00 24,1 18,1 20,9 27,9 25,4 7 4 13 7 ZZW 1014,7 38 60 0,0
20.08.2018 07:00:00 22,1 17,2 19,4 28,0 25,3 7 4 11 6 ZW 1014,2 28 4 0,0
20.08.2018 06:00:00 22,9 16,9 20,8 28,1 25,4 6 4 18 10 ZW 1014,1 30 0 0,0
20.08.2018 05:00:00 23,9 16,9 22,3 28,2 25,4 12 6 21 11 ZW 1014,2 31 0 0,0
20.08.2018 04:00:00 24,8 17,0 22,0 28,3 25,4 10 6 18 10 ZW 1014,3 33 0 0,0
20.08.2018 03:00:00 24,3 17,8 20,6 28,3 25,4 8 5 15 8 WZW 1014,6 33 0 0,0
20.08.2018 02:00:00 23,2 17,9 20,0 28,4 25,4 6 4 12 6 ZZW 1014,9 26 0 0,0
20.08.2018 01:00:00 24,2 18,2 20,9 28,4 25,4 3 2 20 11 ZZW 1015,2 22 0 0,0
20.08.2018 00:00:00 24,2 19,3 21,4 28,4 25,4 8 4 17 9 ZW 1015,3 23 0 0,0
19.08.2018 23:00:00 23,6 19,9 21,7 28,3 25,4 9 5 23 13 ZZW 1015,4 18 0 0,6
19.08.2018 22:00:00 26,4 18,3 22,4 28,2 25,4 15 8 30 16 O 1016,1 18 0 0,0
19.08.2018 21:00:00 26,9 19,0 23,9 28,1 25,4 3 2 15 8 Z 1015,3 36 0 0,0
19.08.2018 20:00:00 29,6 17,8 29,2 27,9 25,4 10 6 21 12 NNW 1015,1 42 56 0,0
19.08.2018 19:00:00 31,0 18,7 33,4 27,8 25,4 11 6 32 18 WNW 1014,4 39 60 0,0
19.08.2018 18:00:00 30,9 18,3 35,4 27,6 25,4 16 8 24 13 N 1014,6 50 60 0,0
19.08.2018 17:00:00 31,3 17,9 37,3 27,4 25,4 16 9 25 14 N 1015,2 53 60 0,0
19.08.2018 16:00:00 30,8 18,9 38,3 27,3 25,4 12 7 25 14 N 1015,6 40 60 0,0
19.08.2018 15:00:00 30,4 19,4 38,3 27,2 25,4 15 8 33 18 N 1015,9 34 60 0,0
19.08.2018 14:00:00 30,8 21,9 37,4 27,2 25,4 16 9 34 18 NNO 1016,4 35 60 0,0
19.08.2018 13:00:00 29,8 21,7 37,2 27,1 25,4 18 10 35 19 N 1016,4 44 60 0,0
19.08.2018 12:00:00 29,8 20,9 36,0 27,2 25,4 16 9 37 20 NNO 1016,9 59 60 0,0
19.08.2018 11:00:00 29,4 20,8 33,8 27,3 25,4 16 9 29 16 N 1016,9 60 60 0,0
19.08.2018 10:00:00 28,6 19,0 31,5 27,4 25,4 12 7 21 11 N 1016,8 60 60 0,0
19.08.2018 09:00:00 26,6 17,7 24,2 27,4 25,4 6 3 12 7 ZZW 1016,6 58 60 0,0
19.08.2018 08:00:00 23,5 16,3 21,6 27,6 25,4 6 3 17 9 ZZW 1016,5 60 19 0,0
19.08.2018 07:00:00 23,0 16,3 21,7 27,6 25,4 8 4 15 8 ZW 1016,5 60 6 0,0
19.08.2018 06:00:00 23,8 16,1 22,4 27,7 25,4 11 6 17 9 ZW 1016,3 60 0 0,0
19.08.2018 05:00:00 23,2 16,7 22,3 27,8 25,4 14 7 24 13 ZW 1016,5 60 0 0,0
19.08.2018 04:00:00 23,5 17,0 22,1 27,9 25,4 14 8 25 13 ZW 1016,5 60 0 0,0
19.08.2018 03:00:00 23,2 17,4 21,3 28,0 25,4 15 8 25 14 ZW 1016,6 60 0 0,0
19.08.2018 02:00:00 22,9 17,4 21,1 28,0 25,4 8 5 18 10 WZW 1017,0 60 0 0,0
19.08.2018 01:00:00 22,9 17,8 20,6 28,0 25,4 8 4 15 8 ZZW 1017,1 60 0 0,0
19.08.2018 00:00:00 23,2 18,3 21,0 28,0 25,4 7 4 15 8 ZZW 1017,2 60 0 0,0
18.08.2018 23:00:00 23,3 19,7 21,3 27,9 25,5 6 3 9 5 WZW 1017,1 54 0 0,0
18.08.2018 22:00:00 23,8 20,1 21,2 27,8 25,5 4 2 10 5 ZZW 1017,1 60 0 0,0
18.08.2018 21:00:00 25,3 21,0 21,3 27,7 25,5 3 1 7 4 NNO 1016,3 9 0 0,0
18.08.2018 20:00:00 27,2 20,8 25,3 27,4 25,4 3 2 16 9 OZO 1016,0 60 28 0,0
18.08.2018 19:00:00 28,7 20,7 31,7 27,2 25,4 8 5 16 8 OZO 1015,7 59 60 0,0
18.08.2018 18:00:00 29,5 20,6 35,4 27,0 25,5 10 6 18 10 OZO 1015,8 58 60 0,0
18.08.2018 17:00:00 29,9 20,2 36,4 26,8 25,5 10 6 18 10 O 1015,8 60 57 0,0
18.08.2018 16:00:00 30,0 19,4 38,5 26,7 25,5 9 5 23 12 NO 1015,6 60 60 0,0
18.08.2018 15:00:00 30,1 20,6 39,9 26,5 25,5 10 5 25 14 O 1016,0 60 60 0,0
18.08.2018 14:00:00 29,8 20,9 38,7 26,5 25,5 12 7 34 18 ONO 1016,4 60 60 0,0
18.08.2018 13:00:00 29,5 20,6 38,2 26,5 25,5 13 7 22 12 O 1016,6 60 60 0,0
18.08.2018 12:00:00 29,3 20,2 36,9 26,5 25,5 11 6 21 11 O 1016,7 56 60 0,0
18.08.2018 11:00:00 29,2 20,6 33,6 26,6 25,5 8 5 16 9 ONO 1016,6 50 60 0,0
18.08.2018 10:00:00 27,9 21,0 29,5 26,7 25,5 5 3 14 8 ZZO 1016,6 51 60 0,0
18.08.2018 09:00:00 26,1 18,0 25,3 26,8 25,5 9 5 18 10 ZW 1016,4 57 60 0,0
18.08.2018 08:00:00 23,8 16,6 21,8 26,9 25,5 11 6 20 11 ZW 1016,0 43 60 0,0
18.08.2018 07:00:00 22,5 16,1 20,9 27,0 25,5 14 8 23 13 ZW 1015,7 46 7 0,0
18.08.2018 06:00:00 21,9 16,6 20,7 27,1 25,5 10 6 18 10 ZW 1015,4 60 0 0,0
18.08.2018 05:00:00 21,9 16,8 20,2 27,2 25,5 8 4 19 10 ZW 1015,2 60 0 0,0
18.08.2018 04:00:00 21,2 17,4 20,1 27,3 25,5 8 5 12 6 ZZW 1015,5 60 0 0,0
18.08.2018 03:00:00 21,6 17,0 20,3 27,3 25,5 8 5 14 8 ZW 1015,6 60 0 0,0
18.08.2018 02:00:00 22,2 17,1 19,9 27,4 25,5 7 4 11 6 ZW 1015,5 60 0 0,0
18.08.2018 01:00:00 22,5 17,2 20,5 27,5 25,6 6 3 15 8 ZW 1015,4 60 0 0,0
18.08.2018 00:00:00 23,0 18,1 19,3 27,5 25,5 9 5 16 8 ZZW 1015,4 60 0 0,0
17.08.2018 23:00:00 22,8 17,9 19,1 27,4 25,5 4 2 19 10 Z 1015,3 60 0 0,0
17.08.2018 22:00:00 23,7 18,3 21,5 27,4 25,6 7 4 10 5 ZZW 1015,1 60 0 0,0
17.08.2018 21:00:00 25,4 17,8 23,6 27,4 25,6 8 4 19 10 WZW 1014,6 60 0 0,0
17.08.2018 20:00:00 26,5 18,6 25,9 27,2 25,6 14 8 29 15 ZZW 1014,1 60 60 0,0
17.08.2018 19:00:00 26,8 18,1 26,9 27,1 25,6 16 9 29 16 ZZW 1013,8 60 6 0,0
17.08.2018 18:00:00 26,7 17,7 27,1 26,9 25,6 16 9 26 14 ZW 1013,9 52 0 0,0
17.08.2018 17:00:00 27,2 18,8 28,5 26,7 25,6 11 6 24 13 Z 1014,5 60 0 0,0
17.08.2018 16:00:00 29,5 18,6 34,2 26,6 25,6 13 7 29 16 NNO 1014,5 60 56 0,0
17.08.2018 15:00:00 29,4 18,5 33,6 26,5 25,6 13 7 30 16 NNO 1014,8 20 46 0,0
17.08.2018 14:00:00 29,8 17,6 38,0 26,5 25,6 16 9 27 15 NNO 1014,9 54 60 0,0
17.08.2018 13:00:00 30,3 18,4 38,3 26,5 25,6 16 9 28 15 NNO 1015,1 60 60 0,0
17.08.2018 12:00:00 30,1 19,2 37,4 26,5 25,6 14 8 30 16 NO 1014,9 46 60 0,0
17.08.2018 11:00:00 29,6 17,1 35,6 26,6 25,6 9 5 21 12 NO 1014,9 60 60 0,0
17.08.2018 10:00:00 29,0 18,1 30,4 26,7 25,6 5 3 14 7 ZZO 1014,7 53 60 0,0
17.08.2018 09:00:00 26,1 16,1 25,0 26,8 25,7 11 6 22 12 ZZW 1014,6 57 60 0,0
17.08.2018 08:00:00 23,6 15,4 21,6 26,9 25,6 13 7 22 12 ZW 1014,5 60 55 0,0
17.08.2018 07:00:00 22,4 15,3 20,9 27,1 25,6 14 7 21 12 ZW 1014,4 55 4 0,0
17.08.2018 06:00:00 22,3 15,4 20,7 27,2 25,6 13 7 21 11 ZW 1014,0 60 0 0,0
17.08.2018 05:00:00 21,9 15,3 19,9 27,3 25,7 11 6 18 10 ZW 1013,9 60 0 0,0
17.08.2018 04:00:00 22,9 16,0 20,8 27,4 25,7 9 5 17 9 ZW 1014,1 60 0 0,0
17.08.2018 03:00:00 22,8 15,4 20,8 27,4 25,7 9 5 19 11 ZW 1014,1 60 0 0,0
17.08.2018 02:00:00 23,2 15,0 20,0 27,5 25,7 10 5 18 10 ZW 1014,2 60 0 0,0
17.08.2018 01:00:00 22,5 14,3 19,6 27,5 25,7 4 2 13 7 WZW 1014,4 60 0 0,0
17.08.2018 00:00:00 21,5 15,6 19,8 27,5 25,7 7 4 11 6 ZW 1014,0 60 0 0,0
16.08.2018 23:00:00 21,6 15,4 20,3 27,5 25,7 9 5 11 6 ZW 1014,0 60 0 0,0
16.08.2018 22:00:00 22,4 16,2 20,9 27,4 25,7 7 4 10 6 ZW 1014,0 60 0 0,0
16.08.2018 21:00:00 23,4 16,4 21,4 27,3 25,7 8 4 10 5 ZW 1013,4 55 0 0,0
16.08.2018 20:00:00 27,5 16,5 25,2 27,1 25,7 4 2 21 11 WZW 1013,1 60 40 0,0
16.08.2018 19:00:00 30,1 12,1 33,9 27,0 25,7 8 4 15 8 NW 1013,0 57 60 0,0
16.08.2018 18:00:00 30,3 13,1 36,9 26,8 25,7 6 3 18 10 NO 1013,5 59 60 0,0
16.08.2018 17:00:00 30,3 14,0 37,0 26,6 25,8 9 5 23 13 N 1013,6 60 60 0,0
16.08.2018 16:00:00 29,8 14,4 37,1 26,5 25,8 14 8 27 15 N 1014,2 47 60 0,0
16.08.2018 15:00:00 29,6 17,1 37,2 26,4 25,8 16 9 39 21 N 1014,7 44 60 0,0
16.08.2018 14:00:00 29,6 17,4 36,7 26,4 25,8 16 9 29 15 N 1015,0 42 60 0,0
16.08.2018 13:00:00 29,3 17,5 36,1 26,4 25,8 17 9 29 16 NNW 1015,4 60 60 0,0
16.08.2018 12:00:00 28,8 17,7 34,7 26,5 25,8 16 9 27 14 N 1015,7 60 60 0,0
16.08.2018 11:00:00 28,5 17,7 33,9 26,6 25,8 16 9 28 15 N 1015,8 60 60 0,0
16.08.2018 10:00:00 28,0 17,5 30,7 26,6 25,8 13 7 22 12 N 1015,5 49 60 0,0
16.08.2018 09:00:00 25,7 18,4 24,9 26,8 25,8 7 4 13 7 ZZW 1015,5 60 60 0,0
16.08.2018 08:00:00 23,0 17,9 19,9 26,9 25,8 8 4 11 6 ZZW 1015,3 60 60 0,0
16.08.2018 07:00:00 20,3 17,3 18,5 27,0 25,8 7 4 12 6 ZZW 1015,2 47 1 0,0
16.08.2018 06:00:00 19,6 17,2 18,5 27,1 25,8 7 4 11 6 ZZW 1015,0 60 0 0,0
16.08.2018 05:00:00 20,3 17,3 19,1 27,2 25,8 7 4 11 6 ZW 1015,1 60 0 0,0
16.08.2018 04:00:00 21,2 17,6 19,4 27,3 25,8 7 4 12 7 W 1015,2 60 0 0,0
16.08.2018 03:00:00 20,8 17,8 19,6 27,4 25,9 8 4 15 8 ZZW 1015,4 60 0 0,0
16.08.2018 02:00:00 22,2 17,8 19,3 27,4 25,9 6 3 13 7 WZW 1015,6 60 0 0,0
16.08.2018 01:00:00 21,5 18,1 19,4 27,5 25,9 5 3 13 7 ZZW 1015,6 60 0 0,0
16.08.2018 00:00:00 21,5 18,3 20,2 27,5 25,9 7 4 10 5 ZW 1015,6 60 0 0,0
15.08.2018 23:00:00 21,9 18,3 20,5 27,5 25,9 5 3 10 5 ZZW 1015,3 60 0 0,0
15.08.2018 22:00:00 23,1 18,4 21,5 27,4 25,9 9 5 12 7 ZW 1015,2 60 0 0,0
15.08.2018 21:00:00 24,4 17,9 22,8 27,4 25,9 7 4 19 10 WZW 1014,7 60 0 0,0
15.08.2018 20:00:00 26,5 17,6 25,8 27,3 25,9 13 7 29 16 NNW 1014,4 60 32 0,0
15.08.2018 19:00:00 27,9 17,4 30,4 27,2 25,9 16 9 28 15 N 1014,2 60 60 0,0
15.08.2018 18:00:00 28,1 18,2 33,0 27,1 25,9 19 11 34 19 N 1014,3 41 60 0,0
15.08.2018 17:00:00 28,2 18,6 33,0 27,0 26,0 22 12 32 18 N 1014,3 40 60 0,0
15.08.2018 16:00:00 28,4 17,6 34,3 26,9 25,9 21 12 39 21 N 1014,4 33 60 0,0
15.08.2018 15:00:00 28,3 17,8 34,3 26,9 26,0 24 13 42 23 N 1014,6 40 60 0,0
15.08.2018 14:00:00 28,6 18,7 33,7 26,9 26,0 23 13 39 21 N 1014,7 55 60 0,0
15.08.2018 13:00:00 28,0 19,2 27,4 26,9 26,0 20 11 32 17 N 1014,7 60 31 0,0
15.08.2018 12:00:00 26,7 18,8 28,1 27,0 26,0 15 8 28 15 N 1014,7 45 10 0,0
15.08.2018 11:00:00 25,7 19,6 26,9 27,1 26,0 11 6 24 13 N 1014,3 56 23 0,0
15.08.2018 10:00:00 25,5 19,4 26,5 27,2 26,0 12 7 21 12 N 1014,2 59 22 0,0
15.08.2018 09:00:00 25,1 19,5 21,5 27,3 26,0 13 7 21 11 NW 1013,9 58 60 0,0
15.08.2018 08:00:00 21,4 18,0 19,6 27,4 26,0 11 6 29 16 ZW 1013,5 60 3 0,0
15.08.2018 07:00:00 20,7 18,6 19,1 27,5 26,0 6 4 14 8 WZW 1013,3 51 0 0,4
15.08.2018 06:00:00 20,8 17,8 19,3 27,6 26,0 8 4 13 7 ZW 1013,1 53 0 0,0

tt = temperatuur
td = dauwpunt
tt 5cm = temperatuur 5cm
tt -20cm = temperatuur -20cm
tt -100cm = temperatuur -100cm
ff = windsnelheid
fx = windstoten
dd = windrichting
ppp = luchtdruk
vv = zicht
sd = Zonneschijnduur
rr = neerslag

Weerstations in de omgeving